Theta_e
309 304 303 300 287 285 283 286 291 290 290 294 295 296 295 296 296 291 301 304 306 307 312 315 326 327 330 333 338 342 347 352 355 355 353 351 355 355 354 354 352 353 354 355 354 350 349 349 349
305 306 301 294 283 277 281 289 289 292 294 293 297 296 294 294 302 299 299 304 305 306 312 314 324 323 324 327 330 336 339 346 351 353 354 353 354 355 354 354 353 353 354 355 354 350 348 349 348
302 304 293 286 281 280 280 286 287 292 294 293 292 295 294 295 299 298 300 302 301 301 309 315 322 320 320 322 324 327 331 337 342 349 351 353 354 354 353 353 353 353 354 355 354 351 348 349 348
297 295 291 283 282 284 286 289 291 290 294 294 292 291 295 298 297 298 298 299 298 298 300 315 322 318 315 318 319 321 323 327 333 338 346 350 351 352 353 352 352 352 353 354 354 352 350 349 349
294 291 283 280 283 286 289 290 292 291 292 293 292 291 293 297 297 295 294 296 295 295 299 302 319 319 315 314 315 316 318 320 324 329 337 345 349 349 351 351 351 351 352 352 353 351 349 348 348
287 288 279 279 283 288 289 292 293 291 290 290 289 289 290 296 295 293 294 292 294 294 297 300 309 316 315 314 313 313 315 316 319 322 328 337 345 348 349 351 349 350 351 351 351 350 348 347 347
283 282 279 281 283 285 289 292 290 289 287 287 291 287 291 291 293 292 291 291 293 294 295 295 297 303 309 313 313 315 316 317 316 318 323 326 335 343 346 347 348 349 350 351 350 349 347 346 346
285 283 279 279 281 282 288 288 288 286 286 290 291 285 285 291 292 291 290 290 290 293 294 294 294 296 297 299 310 313 314 317 317 320 322 321 328 334 337 338 343 348 348 349 348 347 345 345 344
284 278 277 279 281 284 286 283 287 286 284 284 288 284 289 290 290 289 287 288 288 293 292 293 294 294 296 298 299 306 308 312 314 314 319 318 324 336 337 335 338 342 344 346 346 345 343 340 338
280 276 279 284 285 283 285 281 282 282 283 283 284 286 287 288 289 288 287 286 287 288 290 292 293 294 295 297 296 297 300 301 304 309 313 318 319 325 336 331 330 335 337 342 344 343 338 334 340
282 279 283 284 286 287 283 282 282 280 279 283 281 283 286 286 286 286 287 287 286 288 290 292 292 293 293 294 295 296 297 298 300 303 308 314 316 319 329 338 335 337 329 340 341 341 339 339 338
278 283 283 284 285 283 281 283 281 280 282 284 284 284 285 285 286 286 286 287 288 288 289 291 292 292 292 293 294 295 296 297 297 300 304 309 313 316 318 330 337 335 338 338 339 340 339 339 337
279 281 282 283 282 282 283 281 280 281 283 283 285 286 285 285 286 288 288 288 288 288 289 290 291 291 293 293 293 294 295 296 297 298 301 304 307 313 321 319 329 336 337 336 336 337 337 337 335
280 281 281 282 282 282 281 281 281 282 285 284 283 282 283 284 285 285 285 286 287 289 289 291 292 293 294 293 293 293 295 296 297 297 299 303 305 310 317 318 317 331 336 336 335 335 335 335 334
281 276 279 279 280 280 282 277 278 283 284 283 280 281 283 284 285 284 286 287 288 288 290 292 293 294 294 293 293 294 294 297 296 298 300 302 305 306 313 317 317 318 336 335 335 335 334 334 334
276 275 271 278 280 281 281 273 280 282 279 278 279 278 280 283 285 285 286 287 287 289 289 291 293 293 293 293 294 295 294 294 295 296 297 299 301 305 309 313 317 318 327 335 333 333 332 332 333
273 270 272 275 281 280 278 274 280 283 282 281 281 280 282 282 284 285 286 286 286 287 288 288 290 290 292 293 294 294 295 294 294 295 296 297 300 303 304 309 318 323 325 331 333 332 332 331 332
271 270 273 273 277 278 276 275 279 281 281 280 281 281 280 281 283 285 286 286 286 286 287 287 289 289 290 291 291 292 293 295 294 294 296 298 299 302 303 304 307 314 323 323 329 330 331 331 331
274 272 271 274 278 276 275 275 277 280 279 278 280 281 280 279 282 284 285 285 285 285 285 286 286 287 287 287 287 288 288 291 293 294 296 297 298 299 299 298 300 308 317 321 326 325 327 329 317
274 272 271 275 277 275 273 272 276 278 278 279 278 277 278 279 280 282 283 283 283 283 283 284 285 285 286 287 287 287 288 290 292 294 296 297 297 298 299 299 300 303 314 320 322 323 322 317 317
274 272 272 271 274 274 272 269 272 276 278 279 280 280 279 278 278 280 281 281 281 281 281 283 284 284 285 286 287 287 287 288 288 290 293 295 296 297 300 300 302 304 304 310 319 322 320 316 312
270 276 274 272 269 263 271 262 269 274 275 277 278 278 278 279 279 280 280 280 279 280 281 282 283 284 285 285 285 284 284 284 286 288 291 294 295 296 296 297 298 300 305 315 319 322 320 316 310
271 276 273 272 268 264 267 264 267 274 273 276 276 278 278 278 279 278 279 280 280 280 279 280 281 282 283 284 284 284 283 285 286 287 288 291 293 295 297 297 296 296 301 312 320 318 319 315 308
277 271 271 267 259 253 264 266 265 270 274 275 275 276 277 277 277 278 279 280 279 279 279 279 280 280 282 282 282 282 282 282 283 285 287 289 292 293 295 297 296 296 297 311 318 318 316 316 314
264 261 258 253 252 253 268 264 266 274 275 275 274 275 277 277 276 277 276 276 276 276 277 278 278 278 279 280 280 281 281 282 282 283 285 286 289 291 293 295 296 297 299 306 317 318 317 316 315
265 263 258 256 255 260 268 254 269 274 277 278 277 276 277 275 276 275 275 275 275 275 275 275 275 276 277 277 278 279 280 280 281 283 284 286 288 291 293 294 296 299 303 311 316 316 315 315 315
263 258 268 263 252 254 260 266 272 275 273 274 274 276 273 274 274 273 274 274 273 273 274 274 274 275 276 276 276 277 278 279 280 281 283 285 287 290 292 294 295 295 296 308 314 313 311 312 311
270 274 263 258 256 249 256 261 261 267 267 273 272 272 272 272 272 273 273 274 274 273 273 274 274 274 274 275 275 276 276 278 279 281 282 284 286 288 291 292 294 294 294 306 311 311 309 310 308
263 259 265 263 261 256 251 257 264 261 263 266 269 274 271 269 269 272 272 272 272 271 271 271 272 272 272 273 274 274 275 277 279 279 281 283 285 287 289 292 292 292 294 306 309 309 306 307 306
266 260 263 263 256 254 254 260 262 261 268 266 272 274 273 271 271 271 270 269 270 269 270 270 271 271 271 272 272 273 274 275 276 277 280 282 284 287 288 291 292 292 296 306 307 306 305 304 301
Wind_Speed
12 9 3 5 3 2 8 8 6 9 7 6 8 5 6 3 2 5 5 6 8 8 9 10 18 20 21 21 21 18 16 11 13 15 14 15 15 15 15 15 16 18 19 19 18 17 13 10 11
6 7 5 1 4 4 8 14 16 11 10 8 6 5 2 4 7 9 4 6 8 7 6 7 14 18 19 20 20 19 17 16 11 15 16 15 16 17 17 16 16 17 19 19 19 17 16 12 11
6 3 3 3 6 16 7 7 6 7 10 5 4 1 3 4 5 6 4 7 8 7 6 7 13 16 17 17 18 19 18 15 16 11 15 17 18 18 19 18 17 17 18 19 19 18 17 15 13
2 5 4 2 17 9 11 13 12 10 16 10 4 6 6 6 4 5 7 8 8 7 6 7 11 14 16 16 16 18 18 18 15 11 12 17 20 20 19 19 19 19 18 18 19 19 18 17 14
4 2 2 6 19 10 14 11 14 19 16 17 5 11 9 4 10 10 9 8 8 8 7 7 11 12 15 15 15 15 16 17 16 14 13 11 20 22 21 21 21 20 19 19 19 19 19 18 16
3 1 2 9 17 13 9 10 15 12 7 6 6 7 2 7 10 6 7 7 7 6 7 7 9 11 12 13 14 15 12 15 15 16 14 14 14 22 24 23 23 22 20 20 20 19 20 19 17
3 3 6 9 15 20 17 9 15 12 5 1 6 3 6 5 5 6 6 7 6 6 6 6 6 7 9 9 11 13 10 10 13 16 14 15 14 17 24 24 24 24 22 21 21 19 20 20 19
3 3 4 5 15 25 10 6 5 6 4 5 2 2 3 10 7 7 5 5 5 4 4 4 5 5 5 5 8 9 10 10 12 10 10 12 13 11 15 19 22 25 24 22 21 20 21 21 20
1 1 6 9 11 19 4 6 5 7 5 4 3 2 6 13 4 6 5 4 2 1 2 2 4 4 3 3 4 6 8 10 10 10 6 7 7 7 11 15 18 23 24 22 21 21 21 20 18
4 5 9 7 9 12 16 2 7 7 16 19 11 4 7 11 17 14 10 6 5 5 4 4 5 4 4 3 3 5 5 4 4 6 6 4 5 7 10 13 18 19 20 23 22 22 20 16 10
6 14 17 13 17 17 18 16 5 6 17 16 10 9 10 6 10 10 11 10 5 5 3 4 5 5 5 4 2 2 2 3 4 6 7 5 5 5 6 7 7 10 14 12 15 15 11 14 10
10 13 16 17 10 12 18 20 19 13 23 10 14 8 9 14 13 12 11 9 9 8 6 7 7 7 6 4 3 3 2 3 4 4 7 5 4 4 4 6 7 10 9 14 13 10 13 14 14
14 20 13 13 12 15 16 19 21 24 14 10 14 16 12 12 14 14 14 11 8 7 8 8 7 7 6 6 4 3 3 3 5 4 6 5 5 7 4 6 8 8 10 11 12 13 12 14 14
5 14 18 14 19 17 19 29 19 26 23 18 14 11 10 11 12 11 7 7 7 8 8 8 7 7 6 5 5 4 4 5 4 5 5 7 6 7 7 5 7 9 9 10 11 12 12 13 13
7 23 21 17 16 19 23 28 23 22 25 20 13 10 10 9 8 9 9 9 9 7 3 6 4 5 5 5 6 5 4 4 3 4 6 6 6 7 7 6 6 7 8 12 11 13 12 12 13
9 6 10 7 8 11 16 23 17 9 9 10 12 9 8 11 11 10 9 8 6 6 5 3 4 5 5 5 4 5 5 5 4 4 5 7 9 9 7 7 7 7 11 9 11 12 13 12 13
6 15 18 20 15 18 18 26 23 20 17 16 13 12 11 11 13 10 10 7 5 6 4 3 5 6 7 5 5 6 7 6 5 5 5 7 10 10 8 6 6 7 6 7 9 11 15 14 13
22 25 23 23 13 20 22 25 21 17 15 18 17 14 12 12 13 4 9 6 5 2 1 1 4 6 6 5 4 6 7 6 5 5 5 7 8 10 7 5 6 6 7 8 5 10 14 14 15
18 17 20 21 20 19 19 21 23 19 17 15 16 17 13 5 3 6 7 5 6 5 6 5 4 5 3 2 4 5 7 8 6 5 8 10 9 10 9 7 8 8 9 9 10 11 10 14 9
17 22 21 16 17 17 19 21 22 20 17 13 8 3 6 5 6 7 8 8 7 6 6 6 5 5 4 3 3 4 6 7 7 7 8 8 9 9 9 9 10 11 8 11 12 13 10 1 11
17 18 15 17 18 18 17 13 18 25 17 17 14 7 6 8 8 9 9 7 7 7 7 8 6 6 6 6 7 8 8 9 10 10 9 9 8 8 7 8 7 9 8 11 9 9 13 12 3
15 12 13 17 16 13 6 15 17 16 13 10 11 8 7 10 9 8 9 7 7 6 7 8 10 10 7 7 7 10 9 11 10 10 9 8 13 13 12 11 8 8 8 12 9 7 10 12 12
10 5 12 11 16 7 20 4 9 12 6 5 10 10 9 7 7 7 7 7 8 8 8 9 10 11 11 9 9 9 13 11 10 10 14 13 13 11 12 12 11 12 10 13 11 8 15 14 10
9 4 14 6 3 3 6 6 5 7 3 5 5 7 7 7 5 5 6 10 11 10 11 12 14 14 13 11 11 13 16 15 12 12 11 10 9 9 11 13 11 11 11 14 12 11 16 16 14
9 6 5 8 6 7 9 9 4 5 6 3 2 9 8 7 7 10 12 12 13 14 14 13 14 17 15 15 15 16 17 16 17 15 12 13 10 10 10 11 10 9 11 15 13 15 13 16 14
5 6 3 5 5 13 13 4 3 2 4 2 6 8 7 6 9 10 11 12 12 13 14 15 15 17 17 16 18 16 18 12 13 15 14 12 12 10 12 12 14 10 12 15 15 11 11 12 12
8 3 6 4 0 4 4 7 5 3 3 7 8 9 8 9 10 11 11 11 13 14 15 15 17 18 17 17 17 18 16 18 17 18 16 12 15 12 13 14 14 13 13 14 15 12 12 13 12
5 5 6 5 5 6 6 5 4 14 8 16 14 12 11 8 12 14 14 16 15 16 17 17 17 18 19 18 17 16 17 19 18 15 18 18 17 16 16 16 15 14 13 15 15 12 13 15 11
8 4 3 1 3 2 5 7 8 7 5 12 12 14 8 9 11 14 14 15 15 14 15 16 17 18 18 18 18 19 17 18 17 17 18 18 18 17 17 18 17 10 11 15 15 14 14 16 16
6 4 5 2 7 3 4 10 3 4 8 4 14 15 11 9 12 14 13 14 14 15 16 17 17 17 17 17 19 20 19 18 18 20 20 18 19 18 18 20 19 17 12 13 19 14 16 17 17
Wind_Direction
317 308 306 32 68 76 239 252 242 285 297 289 288 234 204 161 131 194 252 46 64 72 53 42 40 40 37 31 28 32 16 239 201 188 197 201 181 172 166 163 161 161 161 162 166 170 171 162 149
319 318 30 84 137 215 254 213 242 253 250 333 318 270 199 191 117 133 83 2 57 74 80 55 42 38 38 35 28 29 25 10 258 213 190 199 193 180 174 172 171 171 171 170 167 170 168 161 156
314 223 76 162 203 232 252 169 228 271 291 286 280 318 278 43 67 103 113 58 54 44 69 54 47 33 33 34 30 25 23 20 14 275 222 199 194 188 180 176 177 179 181 176 170 169 168 162 162
307 6 345 209 249 269 259 288 295 294 301 277 203 281 70 321 62 85 63 49 48 23 26 48 41 33 25 25 27 21 14 14 9 338 326 224 204 194 185 182 181 183 188 183 175 171 162 165 167
10 43 243 244 254 264 277 289 291 280 287 287 253 247 117 54 91 72 53 40 42 11 6 22 33 32 30 17 15 12 4 4 1 350 331 305 226 203 193 190 186 185 188 193 182 173 166 168 166
338 114 243 246 261 265 261 263 277 284 274 300 5 334 53 148 84 101 84 52 39 21 3 15 22 27 30 10 4 356 357 353 352 348 340 317 273 221 204 195 193 188 189 193 188 177 169 170 167
137 27 247 281 281 289 280 317 299 310 314 25 291 326 169 109 105 134 107 82 46 31 34 10 15 20 11 13 352 338 349 345 343 335 335 334 308 255 221 203 198 193 190 191 190 179 173 171 170
139 139 246 241 271 282 281 296 354 39 280 296 101 110 322 299 358 27 62 77 63 47 23 4 10 12 10 358 334 340 346 340 324 316 319 328 300 281 244 224 207 196 194 190 190 176 175 173 171
157 282 240 242 251 271 8 9 326 300 276 294 264 7 253 307 43 5 354 3 54 10 355 8 357 355 359 338 330 338 327 317 315 309 302 319 315 284 249 230 221 206 196 191 189 177 177 174 171
151 207 231 218 263 290 307 344 298 314 304 287 298 312 357 330 328 328 326 318 321 331 330 343 338 327 323 309 310 304 306 300 307 309 308 302 295 318 250 231 214 214 200 192 188 181 179 168 175
224 244 262 262 293 303 306 299 248 267 267 284 285 304 315 306 306 309 309 303 247 254 279 288 285 284 287 287 261 276 292 301 304 310 306 300 299 293 318 238 216 207 205 202 190 181 179 179 176
297 276 282 293 296 302 287 294 282 247 266 274 286 263 287 290 284 278 275 272 282 281 267 277 273 272 267 263 270 243 268 283 291 287 299 304 296 291 277 300 210 212 197 207 198 191 178 182 182
267 277 284 306 312 293 296 288 278 280 292 262 268 277 272 262 263 268 263 271 257 266 259 255 254 250 253 254 259 263 252 261 267 276 277 287 282 280 272 273 293 210 193 204 203 199 186 184 181
291 302 291 298 290 290 285 276 282 285 276 270 258 252 268 266 262 272 272 253 243 237 247 245 256 248 243 244 241 246 238 245 260 268 255 263 265 269 267 253 264 272 200 196 198 189 187 183 180
290 302 296 279 272 273 277 278 276 277 276 267 240 233 254 241 256 246 236 247 245 247 344 37 16 31 3 326 303 288 258 258 256 264 271 275 274 274 264 251 262 268 223 198 198 185 189 191 184
301 270 284 291 299 314 307 291 293 297 304 288 294 277 272 273 260 254 253 245 112 116 80 30 6 347 336 321 308 298 285 255 239 244 260 272 277 273 268 256 255 243 269 190 194 187 186 190 190
234 282 295 311 321 298 292 291 298 292 288 287 279 270 276 265 272 243 243 138 133 112 82 14 341 326 315 312 302 293 288 274 253 234 239 251 265 274 277 272 267 249 245 280 196 191 190 188 193
314 307 304 301 312 310 297 291 294 300 294 286 281 279 268 262 271 27 93 91 89 77 69 305 299 300 305 313 305 302 296 283 252 239 234 239 250 248 254 272 275 267 260 247 190 220 194 194 191
311 311 307 307 307 305 301 292 294 287 281 281 282 286 287 111 87 79 77 61 34 11 359 339 318 299 308 298 291 284 275 280 271 254 250 241 245 252 263 272 274 274 265 254 242 224 241 189 149
301 297 300 300 308 300 293 293 289 280 278 276 285 119 121 106 66 34 23 21 15 345 333 328 313 308 298 287 268 268 287 285 289 279 255 246 243 246 246 244 254 256 257 235 224 218 208 242 178
304 298 303 303 313 301 296 291 297 300 290 275 259 154 87 70 42 16 4 354 344 332 319 312 297 278 269 266 277 278 275 278 277 270 266 262 256 242 238 241 241 257 251 260 249 233 204 208 225
297 303 302 305 323 304 320 299 301 298 314 52 82 77 54 38 23 358 340 324 326 316 310 303 300 291 279 272 274 272 269 269 265 265 270 265 250 248 243 244 249 259 265 251 233 211 191 166 185
271 306 289 295 290 325 305 228 283 309 266 93 57 46 27 10 349 315 322 328 323 321 311 304 301 297 293 282 273 271 269 267 267 263 270 265 260 262 243 235 236 250 256 250 222 193 191 169 153
304 335 304 316 89 2 259 346 261 292 345 51 13 18 340 298 314 326 328 325 316 314 309 306 301 293 291 288 279 271 269 270 269 268 263 258 253 248 246 238 229 238 247 252 217 184 202 180 165
25 4 310 351 1 233 317 335 290 24 53 63 18 329 320 339 332 335 326 323 317 312 307 302 299 296 290 284 278 273 270 270 265 262 257 254 261 246 255 238 234 230 240 249 217 199 190 183 173
267 172 199 295 302 298 313 255 290 227 104 50 342 299 303 316 339 317 315 312 308 305 304 301 296 289 286 281 276 271 267 260 258 254 249 251 248 252 248 254 240 234 240 241 215 203 188 196 181
295 1 230 265 54 47 254 298 285 144 342 313 310 330 310 323 314 313 310 306 311 310 301 295 289 284 279 276 274 270 262 256 254 252 252 249 246 247 245 255 250 236 244 252 211 199 188 181 189
336 289 319 344 306 306 295 285 251 311 308 330 323 324 314 311 327 326 318 319 313 304 300 296 289 283 282 278 271 266 262 258 254 250 247 243 243 240 245 244 254 238 231 236 212 191 181 180 183
326 331 297 200 165 284 316 279 236 242 261 304 307 317 315 313 312 319 312 308 300 296 294 289 289 285 281 276 273 267 260 255 252 248 244 241 239 236 236 241 240 238 219 216 203 189 176 180 169
210 252 190 319 322 230 191 281 256 229 301 277 310 318 328 322 317 316 309 305 306 302 301 300 295 288 282 279 275 268 263 256 247 243 242 233 238 230 230 237 235 233 230 217 202 187 176 173 171